[[{"header":{"parameterUnit":"m.s-1","parameterCategory":1,"la1":30.2991,"la2":30.254,"lo1":-89.0895,"lo2":-89.0444,"dy":0.0017,"dx":0.0017,"nx":28,"ny":28,"refTime":"2025-04-27T21:00:00:Z","depth":0,"parameterNumber":2,"parameterNumberName":"U-component_of_WINDS"},"data":[0,0,0,0,0,0,0,0,0,0,0,0,0,0,0,0,0,0,0,0,0,0,0,0,0,0,0,0,0,0,0,0,0,0,0,0,0,0,0,0,0,0,0,0,0,0,0,0,0,0,0,0,0,0,0,0,0,0,0.8183,0.8185,0,0.8361,0.8363,0.8365,0.8432,0.8431,0.843,0.843,0.8613,0.8618,0.8623,0,0,0,0,0,0,0,0,0,0,0,0,0,0.7899,0.7904,0.8183,0.8185,0.8187,0.8361,0.8363,0.8366,0.8432,0.8431,0.843,0.843,0.8611,0.8617,0.8624,0,0,0,0,0,0,0,0,0,0,0,0,0,0.8044,0.7905,0.8182,0.8241,0.8248,0.836,0.8363,0.8366,0.8432,0.8431,0.843,0.8429,0.8609,0.8617,0.8625,0.8691,0,0,0.8649,0.8653,0,0,0,0,0,0,0,0,0.8036,0.8054,0.823,0.8237,0.8245,0.8373,0.833,0.8475,0.8432,0.8362,0.843,0.8429,0.8534,0.8548,0.8583,0.87,0.8708,0.865,0.8655,0.8658,0.8661,0,0,0,0,0,0,0,0.8026,0.8047,0.8253,0.8233,0.8242,0.8258,0.8278,0.8358,0.845,0.8368,0.8373,0.8394,0.8538,0.8575,0.8588,0.871,0.865,0.8657,0.8662,0.8665,0.889,0.8891,0,0,0,0,0,0,0.8006,0.8038,0.8248,0.8259,0.8136,0.8264,0.8286,0.8333,0.845,0.8467,0.8394,0.8396,0.8562,0.8578,0.8595,0.868,0.8658,0.8666,0.8671,0.8889,0.8891,0.8892,0,0,0,0,0,0,0.7999,0.8024,0.8241,0.815,0.8179,0.827,0.8322,0.8337,0.8375,0.8469,0.8486,0.8416,0.8562,0.8583,0.8667,0.8688,0.867,0.8677,0.8888,0.889,0.8891,0.8852,0,0,0,0,0,0,0.7991,0.8021,0.8048,0.815,0.8183,0.831,0.8323,0.8341,0.8388,0.8393,0.8494,0.851,0.8563,0.8654,0.8675,0.8698,0.8683,0.8886,0.8889,0.8891,0.8852,0.8852,0.8852,0,0,0,0,0,0.7981,0.803,0.8049,0.8074,0.8219,0.8311,0.833,0.8389,0.839,0.8417,0.8478,0.8507,0.8682,0.8662,0.8686,0.8712,0.8885,0.8888,0.889,0.8852,0.8852,0.8852,0,0,0,0,0,0,0.7928,0.8044,0.8067,0.8151,0.822,0.8322,0.8358,0.8388,0.8459,0.846,0.8531,0.8553,0.8631,0.868,0.8656,0.8783,0.8785,0.8793,0.8748,0.8749,0.8749,0.8736,0.869,0,0,0,0,0,0.7926,0.7991,0.8089,0.8154,0.8188,0.8266,0.8309,0.8349,0.8424,0.8454,0.8521,0.8592,0.8663,0.8709,0.878,0.8859,0.8882,0.8889,0.8889,0.8889,0.8894,0.8939,0.8944,0.89,0.89,0.89,0,0,0.7923,0.7994,0.8031,0.8145,0.8204,0.8269,0.8291,0.836,0.8409,0.8464,0.8547,0.8598,0.8683,0.8764,0.8804,0.8808,0.8911,0.8892,0.8891,0.8897,0.8942,0.8946,0.895,0.8902,0.8902,0.8901,0,0,0.7951,0.8011,0.8072,0.813,0.8218,0.827,0.8284,0.8382,0.8418,0.8502,0.8544,0.8604,0.8725,0.8783,0.8829,0.8877,0.8906,0.8898,0.89,0.8943,0.8946,0.895,0.8967,0.8972,0.8903,0.8903,0.8903,0,0.7935,0.8037,0.8099,0.8165,0.8214,0.8266,0.8327,0.8381,0.8487,0.8519,0.8522,0.8675,0.8736,0.8831,0.8843,0.8878,0.8896,0.8887,0.8941,0.8945,0.8949,0.8966,0.8972,0.8902,0.8902,0.8902,0.8902,0,0.8013,0.8083,0.8121,0.8222,0.8275,0.8338,0.841,0.8455,0.849,0.8541,0.8626,0.87,0.8787,0.8812,0.8847,0.8913,0.8912,0.8927,0.8931,0.895,0.8968,0.8975,0.8899,0.89,0.89,0.8901,0,0,0.8014,0.8148,0.8161,0.8208,0.8309,0.8363,0.8428,0.8513,0.855,0.8622,0.8678,0.8779,0.8793,0.8844,0.8886,0.8924,0.8957,0.8934,0.8937,0.8936,0.9033,0.9022,0.9028,0.8976,0.8978,0.8979,0.9026,0,0.8055,0.8175,0.8232,0.8326,0.8391,0.8441,0.8497,0.8565,0.8614,0.8676,0.8731,0.8801,0.8814,0.8845,0.8885,0.8944,0.8977,0.8942,0.903,0.9032,0.9007,0.9037,0.9026,0.9067,0.9033,0.9034,0.9035,0,0.812,0.8191,0.8291,0.8384,0.8413,0.8463,0.8544,0.8603,0.868,0.8713,0.877,0.881,0.888,0.8879,0.8976,0.8951,0.899,0.9024,0.9027,0.9038,0.9035,0.9049,0.9081,0.9087,0.9046,0.9046,0.9045,0,0.811,0.8231,0.8306,0.8344,0.8454,0.8488,0.8535,0.8612,0.8659,0.8729,0.876,0.8838,0.8881,0.894,0.9,0.8994,0.9092,0.9096,0.9121,0.912,0.9141,0.9138,0.9179,0.9165,0.9165,0.9165,0.9165,0,0.815,0.821,0.8303,0.835,0.8418,0.8482,0.8548,0.8599,0.8666,0.8723,0.8771,0.8823,0.8899,0.8961,0.9008,0.9081,0.91,0.9129,0.9141,0.9125,0.9121,0.9152,0.9151,0.9166,0.9166,0.9166,0.9165,0,0.8151,0.8216,0.8302,0.8398,0.8424,0.847,0.8552,0.8599,0.865,0.8722,0.8742,0.8823,0.8898,0.8963,0.9062,0.9094,0.9169,0.9184,0.9143,0.915,0.9172,0.9169,0.9234,0.9246,0.9223,0.9223,0.9223,0,0.8173,0.822,0.8321,0.8362,0.8409,0.8475,0.8523,0.8588,0.8636,0.8727,0.8762,0.8841,0.8907,0.9024,0.9092,0.9168,0.9184,0.9202,0.9196,0.9178,0.9185,0.9181,0.9186,0.9202,0.9202,0.9202,0.9202,0,0.8204,0.8234,0.8301,0.8379,0.8434,0.8499,0.8565,0.8596,0.8673,0.8724,0.8802,0.8853,0.8954,0.9031,0.9114,0.9162,0.9195,0.9203,0.9213,0.9197,0.9172,0.9186,0.9143,0.9201,0.9201,0.9201,0.9201,0.9201,0.8216,0.826,0.8338,0.8411,0.8467,0.8527,0.8576,0.8633,0.8698,0.8786,0.882,0.8898,0.8974,0.9089,0.9137,0.9199,0.9205,0.9219,0.9223,0.9225,0.9223,0.9161,0.9214,0.9215,0.9215,0.9215,0.9215,0,0.825,0.8302,0.8369,0.8459,0.8516,0.8542,0.8616,0.8661,0.873,0.8798,0.8861,0.895,0.9024,0.9097,0.9175,0.9211,0.9228,0.9229,0.9228,0.9238,0.9213,0.9197,0.9214,0.9214,0.9214,0.9214,0.9214,0.9214,0.8274,0.835,0.8388,0.8491,0.8544,0.8621,0.8661,0.8716,0.8771,0.8867,0.8929,0.8976,0.9045,0.9129,0.9198,0.9218,0.9244,0.9242,0.9265,0.9241,0.924,0.9239,0.9224,0.9247,0.9247,0.9285,0.9285,0.9286]},{"header":{"parameterUnit":"m.s-1","parameterCategory":1,"la1":30.2991,"la2":30.254,"lo1":-89.0895,"lo2":-89.0444,"dy":0.0017,"dx":0.0017,"nx":28,"ny":28,"refTime":"2025-04-27T21:00:00:Z","depth":0,"parameterNumber":3,"parameterNumberName":"V-component_of_WINDS"},"data":[0,0,0,0,0,0,0,0,0,0,0,0,0,0,0,0,0,0,0,0,0,0,0,0,0,0,0,0,0,0,0,0,0,0,0,0,0,0,0,0,0,0,0,0,0,0,0,0,0,0,0,0,0,0,0,0,0,0,4.3015,4.3015,0,4.3004,4.3004,4.3004,4.2931,4.2929,4.2927,4.2925,4.2915,4.2916,4.2918,0,0,0,0,0,0,0,0,0,0,0,0,0,4.2973,4.2974,4.3015,4.3015,4.3015,4.3004,4.3004,4.3004,4.2931,4.2929,4.2927,4.2925,4.2914,4.2916,4.2918,0,0,0,0,0,0,0,0,0,0,0,0,0,4.298,4.2974,4.3015,4.2977,4.2974,4.3004,4.3004,4.3004,4.2931,4.2929,4.2926,4.2924,4.2914,4.2916,4.2918,4.2984,0,0,4.2924,4.2925,0,0,0,0,0,0,0,0,4.2979,4.2981,4.2983,4.298,4.2976,4.2966,4.2985,4.2997,4.2932,4.2948,4.2925,4.2922,4.2934,4.2934,4.2938,4.2984,4.2983,4.2924,4.2926,4.2927,4.2927,0,0,0,0,0,0,0,4.2979,4.2981,4.3011,4.2983,4.2979,4.2961,4.2959,4.2987,4.2956,4.2946,4.2941,4.294,4.2932,4.2936,4.2937,4.2983,4.2924,4.2926,4.2928,4.2928,4.3082,4.3084,0,0,0,0,0,0,4.2984,4.2981,4.3011,4.301,4.2971,4.2964,4.2961,4.2972,4.2955,4.295,4.2943,4.2937,4.2934,4.2935,4.2937,4.3013,4.2927,4.2929,4.293,4.3079,4.3082,4.3085,0,0,0,0,0,0,4.2983,4.2987,4.3011,4.2994,4.2996,4.2967,4.298,4.2973,4.2978,4.2953,4.2947,4.2953,4.2932,4.2934,4.2973,4.3011,4.2929,4.2931,4.3076,4.308,4.3084,4.3166,0,0,0,0,0,0,4.2982,4.2987,4.3012,4.2995,4.2997,4.3048,4.2982,4.2975,4.2981,4.2974,4.2961,4.2956,4.293,4.297,4.2975,4.3013,4.2933,4.3072,4.3078,4.3083,4.316,4.3173,4.3184,0,0,0,0,0,4.2981,4.3036,4.3014,4.3018,4.3028,4.305,4.3051,4.302,4.2985,4.301,4.2993,4.2957,4.3006,4.2975,4.2979,4.3019,4.3069,4.3076,4.3082,4.3154,4.317,4.3183,0,0,0,0,0,0,4.3059,4.3033,4.3008,4.306,4.3058,4.3038,4.3068,4.3037,4.3045,4.3038,4.2999,4.2996,4.3041,4.3034,4.2999,4.3081,4.3032,4.3039,4.3085,4.31,4.3111,4.3112,4.2935,0,0,0,0,0,4.3082,4.3102,4.3079,4.3127,4.3127,4.3098,4.3107,4.3082,4.3079,4.3077,4.3064,4.3062,4.3077,4.3088,4.31,4.3158,4.3154,4.3187,4.3199,4.3209,4.3216,4.3246,4.326,4.3106,4.3106,4.3106,0,0,4.313,4.3119,4.3134,4.3142,4.3138,4.3159,4.3098,4.3124,4.3139,4.3081,4.3117,4.3107,4.3102,4.3151,4.3172,4.3146,4.3258,4.3217,4.3225,4.3227,4.3254,4.3269,4.3282,4.3111,4.311,4.3109,0,0,4.3229,4.3223,4.3262,4.3258,4.3252,4.3232,4.3241,4.3226,4.3217,4.3252,4.3209,4.3227,4.3254,4.3252,4.3254,4.3351,4.3318,4.3357,4.3419,4.3448,4.346,4.3471,4.3506,4.3519,4.3364,4.3364,4.3364,0,4.329,4.3321,4.3286,4.3314,4.3318,4.3266,4.3305,4.3303,4.3302,4.3306,4.3277,4.3309,4.3302,4.3349,4.3373,4.3377,4.3386,4.3358,4.3462,4.3472,4.3481,4.3514,4.3527,4.3369,4.3368,4.3368,4.3367,0,4.3396,4.3418,4.345,4.3449,4.3457,4.3491,4.346,4.3473,4.3447,4.3431,4.3467,4.3456,4.3466,4.3475,4.3451,4.3519,4.3503,4.3469,4.3418,4.3501,4.3531,4.3543,4.3375,4.3374,4.3372,4.3371,0,0,4.3545,4.3523,4.3536,4.3534,4.3523,4.3539,4.357,4.3578,4.359,4.359,4.3615,4.3638,4.3606,4.3609,4.3584,4.361,4.3687,4.3572,4.3571,4.3594,4.3761,4.3788,4.3803,4.3665,4.3667,4.3669,4.3762,0,4.364,4.3692,4.366,4.3716,4.3736,4.3686,4.3712,4.3708,4.3693,4.3708,4.3691,4.3708,4.3665,4.3666,4.3689,4.3673,4.372,4.3666,4.3688,4.3689,4.3691,4.3818,4.3846,4.3935,4.3773,4.3775,4.3777,0,4.3758,4.3763,4.3821,4.3805,4.3812,4.3837,4.3841,4.3856,4.385,4.3837,4.384,4.3808,4.3837,4.3787,4.3826,4.379,4.3797,4.379,4.3793,4.3794,4.3738,4.3823,4.3962,4.3976,4.3795,4.3793,4.3792,0,4.3861,4.3882,4.3919,4.3919,4.3902,4.392,4.3913,4.3905,4.3912,4.3916,4.392,4.3928,4.3932,4.3939,4.391,4.3876,4.3953,4.39,4.3944,4.3945,4.3963,4.3962,4.4105,4.3967,4.3967,4.3967,4.3966,0,4.3971,4.4008,4.3965,4.3988,4.4028,4.3991,4.4032,4.402,4.4013,4.4033,4.399,4.4009,4.397,4.3985,4.3963,4.3999,4.4001,4.3992,4.3986,4.3996,4.3998,4.4001,4.3994,4.397,4.3969,4.3969,4.3968,0,4.4093,4.4065,4.4103,4.4082,4.4078,4.4108,4.4091,4.4111,4.4093,4.4118,4.4122,4.4094,4.411,4.4081,4.4094,4.4079,4.413,4.4113,4.4132,4.4127,4.4172,4.4168,4.4322,4.4341,4.4191,4.4192,4.4193,0,4.4165,4.4193,4.4175,4.4184,4.418,4.4197,4.4203,4.4167,4.4176,4.417,4.4192,4.4204,4.4212,4.424,4.422,4.423,4.4214,4.4267,4.4215,4.4225,4.4215,4.4214,4.4216,4.4278,4.428,4.4281,4.4283,0,4.4296,4.428,4.4291,4.4297,4.4306,4.4309,4.4309,4.4319,4.4281,4.4293,4.4308,4.4314,4.4327,4.434,4.4344,4.4337,4.4304,4.4299,4.431,4.4321,4.433,4.4326,4.4161,4.4296,4.4295,4.4294,4.4293,4.4292,4.4395,4.4417,4.4408,4.4421,4.4416,4.4417,4.4435,4.4419,4.4431,4.4438,4.4415,4.4436,4.4429,4.4431,4.4428,4.4444,4.442,4.4436,4.444,4.4444,4.4451,4.4327,4.4445,4.4444,4.4444,4.4443,4.4443,0,4.4524,4.4515,4.4527,4.4528,4.4538,4.4505,4.4503,4.4514,4.4532,4.4528,4.4536,4.4554,4.4566,4.4547,4.4556,4.4572,4.4557,4.4576,4.4575,4.4574,4.4472,4.4462,4.4588,4.4588,4.4588,4.4588,4.4588,4.4588,4.4592,4.4627,4.4611,4.4643,4.4634,4.4653,4.4655,4.4655,4.4651,4.4673,4.4682,4.4669,4.4659,4.4667,4.4677,4.4671,4.4676,4.47,4.4689,4.4595,4.4581,4.4567,4.4558,4.4702,4.4702,4.479,4.4791,4.4791]}]]